Погода в Диме

Россия / Амурская область     49°39′11″N   128°25′59″E
темп.,
°C
ветер,
м/с
пор.,
м/с
влажн.,
%
обл.,
%
осадки,
мм/ч
давл.,
гПа
погр.,
м
17 апреля, сб
сб1700:00+4ссв61094100 1.6 1007389
03:00+4св4894100 1.9 1007349
06:00+3ссв4498100 0.4 1009592
09:00+3с4697100 1.1 1011358
12:00+3с3597100 0.3 1012281
15:00+5ссз339290 0.3 1012329
18:00+6з238421 0.0 1013356
21:00+3юз33945 0.0 101437
18 апреля, вс
вс1800:00+2зюз22922 0.0 101416
03:00+1ююз22890 0.0 101319
06:00+1ююз23890 0.0 101344
09:00+7ююз35600 0.0 1012420
12:00+11юз45400 0.0 10111132
15:00+13юз44330 0.0 10081330
18:00+13юз24403 0.0 1006204
21:00+8ю22554 0.0 100714
19 апреля, пн
пн1900:00+6ю22620 0.0 100615
03:00+5ююв336592 0.0 100523
06:00+4ю226319 0.0 100417
09:00+8ссз910595 0.0 1005783
12:00+6ссз111245100 0.0 10081290
15:00+7сз1114270 0.0 10091968
18:00+5сз1015260 0.0 10112194
21:00+1сз1018280 0.0 10131676
20 апреля, вт
вт2000:000сз817330 0.0 10131634
03:00−1сз1020330 0.0 10131473
06:00−1сз918280 0.0 10131254
09:00+2сз914190 0.0 10151249
12:00+8сз812160 0.0 10141491
15:00+11зсз710200 0.0 10131676
18:00+12з48260 0.0 1012441
21:00+8юз334048 0.0 101317
21 апреля, ср
ср2100:00+6ю33490 0.0 101334
03:00+5ююз355428 0.0 101271
06:00+5ююв33545 0.0 101222
09:00+12юз5837100 0.0 1013451
12:00+17зюз5629100 0.0 10121089
15:00+17ссз3232100 0.0 1012963
18:00+16с3539100 0.0 1012265
21:00+11св51150100 0.0 1013256